Location: L?s?u
(45.9167°N, 22.5000°E)
Time: 10:28:27
(UTC+00:00)

Daily predictions for brighter satellites

Satellite Brightness Start Highest point End
(mag) Time Altitude Azimuth Time Altitude Azimuth Time Altitude Azimuth
USA 186 2.0 17:48:15 10° SSE 17:51:09 44° ENE 17:54:02 10° N
Cosmos 1825 3.4 17:48:46 10° NNW 17:52:03 42° W 17:55:19 10° SSW
SL-27 R/B 2.3 17:49:39 10° N 17:52:28 44° ENE 17:55:13 10° SE
Okean O Rocket 2.2 17:48:55 10° SE 17:52:58 40° ENE 17:57:04 10° N
Cosmos 1486 Rocket 4.4 17:49:44 10° N 17:54:45 46° ENE 17:59:43 10° SE
Cosmos 1782 Rocket 3.7 17:52:12 10° S 17:56:34 85° W 18:01:01 10° N
CZ-4 R/B 1.5 17:55:46 10° S 17:59:40 77° WSW 18:03:32 10° NNW
NOSS 3-1 (A) 3.3 17:57:50 10° S 18:02:26 45° ESE 18:07:50 10° NE
SJ 16-02 2.7 18:02:30 10° NW 18:06:33 39° WSW 18:10:33 10° S
Resurs 01 Rocket 1.8 18:03:13 10° SSE 18:07:32 57° ENE 18:11:53 10° N
CZ-4B R/B 4.4 18:05:42 10° SSW 18:09:02 34° W 18:12:18 10° NNW
DELTA 2 DEB (DPAF) 4.0 18:06:06 10° NNE 18:10:19 61° ESE 18:14:30 10° S
USA 229 DEB 4.5 18:07:05 10° SSE 18:11:37 22° ESE 18:16:25 10° ENE
Cosmos 1300 Rocket 4.0 18:10:46 10° SSW 18:15:07 68° W 18:19:32 10° N
USA 234 3.3 18:11:15 10° SE 18:17:48 90° SW 18:24:23 10° NW
USA 281 3.5 18:12:21 10° SE 18:18:44 56° ENE 18:25:08 10° NNW
NOSS 3-1 (C) 3.6 18:17:55 10° SW 18:22:50 65° NW 18:28:46 10° NE
Cosmos 2151 Rocket 4.0 18:20:18 10° SSE 18:24:23 39° E 18:28:32 10° NNE
Tiangong -0.6 18:22:14 10° SSW 18:24:29 19° SSE 18:25:14 17° SE
Cosmos 2227 Rocket 3.8 18:22:33 10° N 18:26:43 20° NE 18:30:32 11° E
CSL-04 Debris 4.3 18:24:42 10° SSE 18:30:08 79° WSW 18:35:39 10° NNW
ATLAS CENTAUR R/B 3.7 18:31:14 10° NNE 18:32:13 11° NNE 18:33:12 10° NE
ATLAS 3B R/B 2.8 18:29:09 10° SSW 18:36:12 86° SE 18:43:50 10° NE
Cosmos 1697 Rocket 4.1 18:37:21 16° ESE 18:37:40 16° E 18:41:01 10° ENE
CSL-04 Rocket 3.9 18:33:08 10° S 18:38:39 74° WSW 18:44:07 10° NNW
Cosmos 371 Rocket 3.3 18:34:22 10° NNW 18:39:08 63° ENE 18:42:32 19° SE
SL-4 R/B 3.0 18:37:04 10° WNW 18:40:26 34° N 18:43:07 13° ENE
COSMOS 2455 3.7 18:35:22 10° NNW 18:40:55 36° NE 18:44:51 18° ESE
Iridium 2 3.8 18:38:58 10° NNE 18:41:40 32° E 18:42:18 29° ESE
Cosmos 1777 Rocket 4.2 18:36:41 10° NNW 18:41:55 59° ENE 18:45:33 20° SE
Cosmos 304 Rocket 3.9 18:38:26 10° NNW 18:43:08 55° ENE 18:46:06 22° SE
Okean 2 Rocket 3.1 18:41:57 10° S 18:46:24 64° E 18:50:52 10° NNE
SPOT 5 3.4 18:46:54 20° SE 18:50:25 52° ENE 18:55:30 10° N
CZ-4C R/B 3.7 18:45:20 10° NNW 18:51:43 39° NE 18:57:31 17° E
Cosmos 2297 Rocket 2.6 18:50:13 10° NNW 18:55:43 50° ENE 18:58:46 25° ESE
Spot 2 Rocket 4.4 18:56:18 23° ESE 18:58:20 32° ENE 19:02:46 10° N
Cosmos 405 Rocket 4.3 18:59:06 19° ENE 18:59:06 19° ENE 19:01:10 10° NE
Cosmos 1503 Rocket 4.1 18:54:05 10° NNW 18:59:29 83° WSW 19:03:17 20° SSE
Cosmos 1656 3.6 18:55:15 10° S 19:00:42 59° ESE 19:06:08 10° NNE
Cosmos 1354 Rocket 4.0 18:57:02 10° NNW 19:02:24 81° ENE 19:05:34 25° SSE
BlueWalker 3 1.8 18:58:38 10° SW 19:02:27 81° SE 19:06:06 11° ENE
Terra 2.6 19:01:25 27° ESE 19:03:07 35° ENE 19:07:24 10° N
ATLAS 5 CENTAUR R/B 3.4 19:03:44 10° W 19:06:37 25° NW 19:09:49 10° NNE
Iridium 4 Rocket 3.7 19:04:24 19° SSE 19:08:24 66° E 19:14:10 10° N
Cosmos 1455 Rocket 4.0 19:09:45 29° E 19:09:52 29° E 19:13:39 10° NNE
Okean 1 Rocket 3.0 19:06:57 20° S 19:09:55 70° E 19:14:24 10° NNE
Sich 1 Rocket 3.8 19:05:36 10° SSW 19:09:58 72° W 19:14:27 10° N
Cosmos 332 Rocket 4.2 19:06:53 10° NNW 19:11:36 48° ENE 19:13:17 34° ESE
USA 245 4.1 19:09:43 31° SE 19:11:52 52° ENE 19:16:09 10° N
Okean-O 3.1 19:11:08 18° S 19:14:19 59° W 19:18:41 10° NNW
Ariane Rocket 3.4 19:16:22 34° ESE 19:18:03 46° ENE 19:22:53 10° N
Cosmos 1763 Rocket 3.7 19:17:53 35° SE 19:19:19 44° ESE 19:24:10 10° NNE
CZ-4C R/B 3.9 19:18:21 10° N 19:21:39 46° WNW 19:24:53 10° SW
Cosmos 2263 Rocket 3.9 19:18:01 10° N 19:22:10 21° NE 19:24:25 16° ENE
USA 267 4.3 19:18:26 10° NE 19:24:35 45° NNW 19:30:44 10° W
Cosmos 1437 Rocket 3.4 19:21:45 10° N 19:25:28 39° ENE 19:25:29 39° ENE
Cosmos 44 3.4 19:20:11 10° SSW 19:25:33 71° ESE 19:30:54 10° NE
Genesis I 3.3 19:22:46 10° NW 19:26:21 56° WSW 19:26:55 49° SSW
BREEZE-M R/B 2.7 19:25:50 10° WNW 19:27:40 46° WNW 19:27:40 46° WNW
Okean O Rocket 3.8 19:26:02 10° SW 19:29:24 22° W 19:32:48 10° NW
Cosmos 990 Rocket 4.1 19:25:20 10° NNW 19:30:28 59° ENE 19:31:52 43° ESE
Cosmos 1605 Rocket 4.0 19:24:57 10° N 19:31:23 78° E 19:34:29 33° SSE
Aureole 1 Rocket 3.7 19:32:36 10° N 19:34:29 26° NNE 19:34:29 26° NNE
Cosmos 540 Rocket 3.6 19:39:04 47° ESE 19:39:13 47° ESE 19:44:08 10° NNE
Resurs 01 Rocket 4.3 19:41:43 10° SW 19:44:21 15° W 19:47:00 10° NW
MOS 1 Rocket 3.6 19:46:11 44° ENE 19:46:11 44° ENE 19:50:18 10° N
Cosmos 2058 3.5 19:47:17 10° N 19:50:33 41° NE 19:50:33 41° NE
Cosmos 468 Rocket 3.9 19:51:31 57° ESE 19:51:43 58° ESE 19:56:50 10° NNE
ERS-1 Rocket 3.1 19:51:26 44° S 19:52:57 69° WSW 19:57:59 10° NNW
CENTAUR R/B 3.7 19:45:16 10° NW 19:53:06 51° NE 19:57:39 29° E
SPOT 3 Rocket 3.4 19:55:09 57° SSE 19:56:17 88° ENE 20:01:31 10° NNW
USA 229 DEB 3.6 19:55:34 10° SW 20:01:42 75° NW 20:08:30 10° NE
USA 229 3.6 19:55:39 10° SW 20:01:47 76° NW 20:08:36 10° NE
Cosmos 1727 Rocket 3.9 20:04:27 52° SSE 20:06:01 73° E 20:12:16 10° NNE
Landsat 5 3.9 20:03:36 10° NNE 20:06:58 54° NE 20:06:58 54° NE
Cosmos 2100 Rocket 4.1 20:02:17 10° N 20:08:34 58° ENE 20:09:32 52° ESE
ATLAS CENTAUR R/B 2.0 20:07:01 10° NNW 20:09:58 45° N 20:09:58 45° N
Cosmos 2227 Rocket 2.1 20:05:47 10° NNW 20:11:30 83° WSW 20:12:21 66° S
Cosmos 1980 Rocket 3.0 20:13:32 36° ENE 20:13:32 36° ENE 20:17:26 10° NE
Cosmos 1000 Rocket 4.4 20:17:02 60° ESE 20:17:31 62° E 20:23:34 10° NNE
Cosmos 1892 Rocket 4.2 20:13:49 10° NNW 20:17:58 46° W 20:18:09 46° WSW
Cosmos 292 Rocket 3.9 20:14:05 10° NNW 20:18:28 63° NE 20:18:28 63° NE
SL-4 R/B 3.4 20:16:01 10° WNW 20:17:57 30° WNW 20:17:57 30° WNW
Cosmos 1697 Rocket 2.7 20:18:57 43° SW 20:20:53 81° WNW 20:26:35 10° NNE
Cosmos 2123 Rocket 4.4 20:21:07 45° E 20:21:07 45° E 20:27:00 10° NNE
Cosmos 1937 Rocket 3.7 20:18:24 10° NNW 20:23:39 60° ENE 20:23:39 60° ENE
COSMOS 2455 3.3 20:21:14 10° NW 20:27:02 49° WSW 20:27:59 45° SW
MetOp-A 4.4 20:30:40 42° NW 20:30:40 42° NW 20:33:21 10° NNW
Cosmos 405 Rocket 4.4 20:33:26 29° WNW 20:33:26 29° WNW 20:36:41 10° N
Cosmos 1758 Rocket 4.5 20:31:48 10° N 20:35:01 43° NNE 20:35:01 43° NNE
Cosmos 1898 Rocket 3.5 20:31:01 10° NNW 20:36:04 78° WNW 20:36:04 78° WNW
Cosmos 2228 4.5 20:38:16 30° NNE 20:38:16 30° NNE 20:40:30 10° NNE
ARIANE 5 R/B 3.7 20:39:49 38° NNE 20:39:49 38° NNE 20:43:01 10° N
USA 81 4.4 20:38:45 56° WSW 20:39:19 60° W 20:44:32 10° N
Cosmos 2297 Rocket 3.6 20:34:46 10° NW 20:39:27 27° WSW 20:40:35 26° WSW
Terra 3.3 20:40:08 27° WSW 20:40:44 28° W 20:44:49 10° NW
CZ-4C R/B 3.1 20:33:30 10° NW 20:40:46 71° SW 20:42:37 55° S
BlueWalker 3 3.7 20:37:31 10° W 20:40:36 31° NNW 20:40:36 31° NNW
Meteor 2-13 Rocket 4.4 20:43:01 65° SW 20:43:54 78° W 20:50:06 10° N
Cosmos 2369 4.3 20:45:58 46° ENE 20:45:58 46° ENE 20:50:05 10° NNE
Meteor 2-1 Rocket 4.2 20:45:49 74° W 20:45:58 75° WNW 20:51:30 10° N
Meteor 2-8 Rocket 4.5 20:43:33 10° N 20:49:38 65° ENE 20:49:38 65° ENE
Cosmos 1725 Rocket 3.9 20:44:17 10° N 20:50:29 70° E 20:50:29 70° E
Cosmos 2233 Rocket 4.4 20:44:57 10° N 20:50:44 48° ENE 20:50:44 48° ENE
Cosmos 1459 Rocket 3.8 20:45:40 10° N 20:51:44 77° W 20:52:04 74° SW
Cosmos 2219 3.3 20:49:15 10° NNW 20:54:33 66° W 20:54:33 66° W
Cosmos 2061 Rocket 4.2 20:50:42 10° N 20:57:03 60° ENE 20:57:03 60° ENE
Cosmos 2263 Rocket 2.3 21:01:09 10° NNW 21:06:06 68° NW 21:06:06 68° NW
Cosmos 2082 4.0 21:07:36 10° NNW 21:12:29 63° WNW 21:12:29 63° WNW
NOSS 3-2 (A) 4.0 21:11:23 10° NW 21:18:53 89° NE 21:19:58 71° SE
Cosmos 2322 Rocket 4.2 21:22:13 16° ENE 21:22:13 16° ENE 21:23:45 10° NE
Meteor 2-3 Rocket 4.2 21:14:32 10° NNW 21:19:41 54° WNW 21:19:41 54° WNW
SL-16 R/B 3.4 21:41:08 33° NE 21:41:08 33° NE 21:44:21 10° NE
CENTAUR R/B 3.4 21:35:59 10° NW 21:44:12 57° WSW 21:44:48 56° SW
Cosmos 1844 Rocket 3.4 21:45:53 10° NNW 21:50:30 47° NNE 21:50:30 47° NNE
Cosmos 1980 Rocket 3.5 21:55:14 31° WNW 21:56:14 33° NW 22:01:20 10° NNE
Cosmos 2278 4.3 22:02:49 52° NNE 22:02:49 52° NNE 22:07:04 10° NNE
Lacrosse 4 Rocket 3.9 22:33:41 19° N 22:33:41 19° N 22:35:15 10° N
H-2A R/B 4.1 22:29:01 10° N 22:30:48 25° N 22:30:48 25° N
NOSS 3-2 (C) 4.1 22:27:28 10° NW 22:34:32 67° WSW 22:34:32 67° WSW
Cosmos 1464 Rocket 4.3 22:39:32 10° NNW 22:44:59 64° NW 22:44:59 64° NW
USA 267 4.2 22:42:41 10° E 22:48:51 45° NNE 22:55:01 10° NW
Cosmos 2360 Rocket 2.9 22:51:06 51° NNE 22:51:06 51° NNE 22:55:16 10° NNE
Cosmos 2333 Rocket 2.8 23:03:47 55° NNE 23:03:47 55° NNE 23:08:08 10° NNE
Cosmos 2322 Rocket 2.9 23:03:59 50° NNW 23:03:59 50° NNW 23:08:34 10° NNE
Cosmos 2219 Rocket 3.0 23:05:42 44° NE 23:05:42 44° NE 23:09:41 10° NNE
Lacrosse 5 3.1 23:05:56 40° NNE 23:05:56 40° NNE 23:09:21 10° NE
Cosmos 2278 Rocket 4.2 23:01:07 10° N 23:05:41 24° NE 23:09:02 15° E
Cosmos 2034 Rocket 4.3 23:01:52 10° NNW 23:07:00 61° NW 23:07:00 61° NW
CZ-2D R/B 4.2 23:11:38 10° NE 23:15:04 17° E 23:15:10 17° E
SL-16 R/B 3.6 23:22:57 29° NW 23:23:14 29° NW 23:28:11 10° N
Cosmos 1634 Rocket 4.0 23:22:38 10° N 23:28:37 80° NNE 23:28:37 80° NNE
USA 238 DEB 4.5 23:27:26 10° NW 23:32:58 44° W 23:32:58 44° W
USA 238 4.4 23:27:32 10° NW 23:33:05 44° W 23:33:05 44° W
IDEFIX/ARIANE 42P 3.8 23:35:28 10° NNE 23:39:49 33° E 23:39:49 33° E
Resurs 1-4 Rocket 3.5 23:36:00 10° NE 23:40:30 28° E 23:40:30 28° E
Cosmos 1943 Rocket 4.1 23:38:28 10° N 23:43:13 26° NE 23:47:57 10° ESE
NOSS 2-2 (E) 4.5 23:48:00 10° NNW 23:52:11 55° NE 23:52:11 55° NE
